Time,TemperatureF,DewpointF,PressureIn,WindDirection,WindDirectionDegrees,WindSpeedMPH,WindSpeedGustMPH,Humidity,HourlyPrecipIn,Conditions,Clouds,dailyrainin,SoftwareType,DateUTC
2013-02-27 00:02:00,36.0,30.0,29.97,East,84,3.0,16.0,78,0.00,,,0.00,,2013-02-27 05:02:00,
2013-02-27 00:12:00,36.0,30.0,29.97,East,84,3.0,16.0,78,0.00,,,0.00,,2013-02-27 05:12:00,
2013-02-27 00:22:00,35.0,29.0,29.98,East,84,2.0,8.0,80,0.00,,,0.00,,2013-02-27 05:22:00,
2013-02-27 00:32:00,35.0,30.0,29.98,NE,56,3.0,10.0,83,0.00,,,0.00,,2013-02-27 05:32:00,
2013-02-27 00:42:00,35.0,30.0,29.98,NE,56,3.0,10.0,83,0.00,,,0.00,,2013-02-27 05:42:00,
2013-02-27 00:52:00,34.0,31.0,29.98,ENE,67,3.0,8.0,88,0.00,,,0.00,,2013-02-27 05:52:00,
2013-02-27 01:02:00,34.0,31.0,29.98,North,359,4.0,10.0,90,0.00,,,0.00,,2013-02-27 06:02:00,
2013-02-27 01:11:00,34.0,31.0,29.98,North,359,4.0,10.0,90,0.00,,,0.00,,2013-02-27 06:11:00,
2013-02-27 01:22:00,33.0,31.0,29.97,ENE,64,3.0,8.0,93,0.00,,,0.00,,2013-02-27 06:22:00,
2013-02-27 01:33:00,33.0,32.0,29.93,NNE,21,3.0,9.0,95,0.00,,,0.00,,2013-02-27 06:33:00,
2013-02-27 01:42:00,33.0,32.0,29.93,NNE,21,3.0,9.0,95,0.00,,,0.00,,2013-02-27 06:42:00,
2013-02-27 01:52:00,33.0,32.0,29.93,NE,49,3.0,11.0,95,0.00,,,0.00,,2013-02-27 06:52:00,
2013-02-27 02:01:00,33.0,32.0,29.93,NE,49,5.0,18.0,95,0.00,,,0.00,,2013-02-27 07:01:00,
2013-02-27 02:12:00,33.0,32.0,29.93,NE,49,5.0,18.0,95,0.00,,,0.00,,2013-02-27 07:12:00,
2013-02-27 02:22:00,32.0,31.0,29.92,North,1,3.0,10.0,95,0.00,,,0.00,,2013-02-27 07:22:00,
2013-02-27 02:32:00,32.0,31.0,29.92,West,264,3.0,12.0,95,0.00,,,0.00,,2013-02-27 07:32:00,
2013-02-27 02:42:00,32.0,31.0,29.92,West,264,3.0,12.0,95,0.00,,,0.00,,2013-02-27 07:42:00,
2013-02-27 02:51:00,32.0,31.0,29.89,NNE,33,3.0,9.0,95,0.00,,,0.00,,2013-02-27 07:51:00,
2013-02-27 03:01:00,32.0,31.0,29.87,ENE,57,4.0,16.0,95,0.00,,,0.00,,2013-02-27 08:01:00,
2013-02-27 03:11:00,32.0,31.0,29.87,ENE,57,4.0,16.0,95,0.00,,,0.00,,2013-02-27 08:11:00,
2013-02-27 03:22:00,32.0,30.0,29.86,NE,44,4.0,11.0,94,0.00,,,0.00,,2013-02-27 08:22:00,
2013-02-27 03:32:00,32.0,30.0,29.88,ENE,58,4.0,13.0,94,0.00,,,0.00,,2013-02-27 08:32:00,
2013-02-27 03:42:00,32.0,30.0,29.88,ENE,58,4.0,13.0,94,0.00,,,0.00,,2013-02-27 08:42:00,
2013-02-27 03:52:00,32.0,30.0,29.85,North,1,2.0,10.0,94,0.00,,,0.00,,2013-02-27 08:52:00,
2013-02-27 04:02:00,32.0,30.0,29.84,NNE,29,3.0,10.0,94,0.00,,,0.00,,2013-02-27 09:02:00,
2013-02-27 04:12:00,32.0,30.0,29.84,NNE,29,3.0,10.0,94,0.00,,,0.00,,2013-02-27 09:12:00,
2013-02-27 04:22:00,32.0,30.0,29.82,NE,39,4.0,11.0,94,0.00,,,0.00,,2013-02-27 09:22:00,
2013-02-27 04:32:00,32.0,30.0,29.81,NE,52,4.0,8.0,94,0.00,,,0.00,,2013-02-27 09:32:00,
2013-02-27 04:42:00,32.0,30.0,29.81,NE,52,4.0,8.0,94,0.00,,,0.00,,2013-02-27 09:42:00,
2013-02-27 04:51:00,32.0,30.0,29.81,NE,35,3.0,14.0,93,0.00,,,0.00,,2013-02-27 09:51:00,
2013-02-27 05:01:00,32.0,30.0,29.80,NE,50,5.0,10.0,93,0.00,,,0.00,,2013-02-27 10:01:00,
2013-02-27 05:12:00,32.0,30.0,29.80,NE,50,5.0,10.0,93,0.00,,,0.00,,2013-02-27 10:12:00,
2013-02-27 05:22:00,32.0,30.0,29.78,NW,312,3.0,11.0,93,0.00,,,0.00,,2013-02-27 10:22:00,
2013-02-27 05:32:00,32.0,30.0,29.78,WNW,300,4.0,12.0,93,0.00,,,0.00,,2013-02-27 10:32:00,
2013-02-27 05:42:00,32.0,30.0,29.78,WNW,300,4.0,12.0,93,0.00,,,0.00,,2013-02-27 10:42:00,
2013-02-27 05:52:00,33.0,31.0,29.78,NNW,327,2.0,9.0,93,0.00,,,0.00,,2013-02-27 10:52:00,
2013-02-27 06:02:00,33.0,31.0,29.78,SSE,153,3.0,19.0,92,0.00,,,0.00,,2013-02-27 11:02:00,
2013-02-27 06:12:00,33.0,31.0,29.78,SSE,153,3.0,19.0,92,0.00,,,0.00,,2013-02-27 11:12:00,
2013-02-27 06:22:00,33.0,31.0,29.76,SSE,153,4.0,17.0,92,0.00,,,0.00,,2013-02-27 11:22:00,
2013-02-27 06:32:00,33.0,31.0,29.75,SSE,153,3.0,15.0,92,0.00,,,0.00,,2013-02-27 11:32:00,
2013-02-27 06:42:00,33.0,31.0,29.75,SSE,153,3.0,15.0,92,0.00,,,0.00,,2013-02-27 11:42:00,
2013-02-27 06:52:00,33.0,31.0,29.74,SSE,153,5.0,14.0,92,0.00,,,0.00,,2013-02-27 11:52:00,
2013-02-27 07:02:00,33.0,31.0,29.72,SSE,153,6.0,15.0,92,0.00,,,0.00,,2013-02-27 12:02:00,
2013-02-27 07:13:00,33.0,31.0,29.72,SSE,153,6.0,15.0,92,0.00,,,0.00,,2013-02-27 12:13:00,
2013-02-27 07:22:00,33.0,31.0,29.73,SSE,153,2.0,17.0,92,0.00,,,0.00,,2013-02-27 12:22:00,
2013-02-27 07:33:00,34.0,32.0,29.73,SSE,153,5.0,11.0,92,0.00,,,0.00,,2013-02-27 12:33:00,
2013-02-27 07:42:00,34.0,32.0,29.73,SSE,153,5.0,11.0,92,0.00,,,0.00,,2013-02-27 12:42:00,
2013-02-27 07:52:00,34.0,32.0,29.72,SSE,153,6.0,18.0,92,0.00,,,0.00,,2013-02-27 12:52:00,
2013-02-27 08:03:00,34.0,32.0,29.72,SSE,153,5.0,15.0,92,0.00,,,0.00,,2013-02-27 13:03:00,
2013-02-27 08:12:00,34.0,32.0,29.72,SSE,153,5.0,15.0,92,0.00,,,0.00,,2013-02-27 13:12:00,
2013-02-27 08:22:00,34.0,32.0,29.72,SSE,153,3.0,16.0,91,0.00,,,0.00,,2013-02-27 13:22:00,
2013-02-27 08:32:00,35.0,33.0,29.72,NNE,32,1.0,6.0,92,0.00,,,0.00,,2013-02-27 13:32:00,
2013-02-27 08:42:00,35.0,33.0,29.72,NNE,32,1.0,6.0,92,0.00,,,0.00,,2013-02-27 13:42:00,
2013-02-27 08:52:00,35.0,33.0,29.71,SSE,153,2.0,13.0,92,0.00,,,0.00,,2013-02-27 13:52:00,
2013-02-27 09:02:00,35.0,33.0,29.69,NNE,16,3.0,12.0,92,0.00,,,0.00,,2013-02-27 14:02:00,
2013-02-27 09:12:00,35.0,33.0,29.69,NNE,16,3.0,12.0,92,0.00,,,0.00,,2013-02-27 14:12:00,
2013-02-27 09:22:00,35.0,33.0,29.68,ESE,108,6.0,13.0,92,0.00,,,0.00,,2013-02-27 14:22:00,
2013-02-27 09:32:00,36.0,34.0,29.69,ENE,63,3.0,14.0,92,0.00,,,0.00,,2013-02-27 14:32:00,
2013-02-27 09:42:00,36.0,34.0,29.69,ENE,63,3.0,14.0,92,0.00,,,0.00,,2013-02-27 14:42:00,
2013-02-27 09:52:00,37.0,35.0,29.68,SSW,209,2.0,13.0,91,0.00,,,0.00,,2013-02-27 14:52:00,
2013-02-27 10:02:00,37.0,35.0,29.67,ENE,75,3.0,11.0,91,0.00,,,0.00,,2013-02-27 15:02:00,
2013-02-27 10:12:00,37.0,35.0,29.67,ENE,75,3.0,11.0,91,0.00,,,0.00,,2013-02-27 15:12:00,
2013-02-27 10:22:00,37.0,35.0,29.67,ESE,109,5.0,11.0,91,0.00,,,0.00,,2013-02-27 15:22:00,
2013-02-27 10:32:00,38.0,35.0,29.65,WNW,288,3.0,12.0,90,0.00,,,0.00,,2013-02-27 15:32:00,
2013-02-27 10:42:00,38.0,35.0,29.65,WNW,288,3.0,12.0,90,0.00,,,0.00,,2013-02-27 15:42:00,
2013-02-27 10:52:00,38.0,35.0,29.66,ESE,102,1.0,11.0,90,0.00,,,0.00,,2013-02-27 15:52:00,
2013-02-27 11:02:00,38.0,36.0,29.65,NNE,32,2.0,11.0,91,0.00,,,0.00,,2013-02-27 16:02:00,
2013-02-27 11:12:00,38.0,36.0,29.65,NNE,32,2.0,11.0,91,0.00,,,0.00,,2013-02-27 16:12:00,
2013-02-27 11:22:00,38.0,35.0,29.65,NW,307,5.0,12.0,90,0.00,,,0.00,,2013-02-27 16:22:00,
2013-02-27 11:32:00,38.0,36.0,29.65,East,83,4.0,10.0,91,0.00,,,0.00,,2013-02-27 16:32:00,
2013-02-27 11:42:00,38.0,36.0,29.65,East,83,4.0,10.0,91,0.00,,,0.00,,2013-02-27 16:42:00,
2013-02-27 11:52:00,38.0,36.0,29.65,East,88,2.0,14.0,91,0.00,,,0.00,,2013-02-27 16:52:00,
2013-02-27 12:02:00,38.0,36.0,29.65,ESE,111,5.0,19.0,92,0.00,,,0.00,,2013-02-27 17:02:00,
2013-02-27 12:11:00,38.0,36.0,29.65,ESE,111,5.0,19.0,92,0.00,,,0.00,,2013-02-27 17:11:00,
2013-02-27 12:21:00,38.0,36.0,29.64,East,84,2.0,10.0,92,0.00,,,0.00,,2013-02-27 17:21:00,
2013-02-27 12:32:00,38.0,36.0,29.62,ENE,63,4.0,14.0,92,0.00,,,0.00,,2013-02-27 17:32:00,
2013-02-27 12:42:00,38.0,36.0,29.62,ENE,63,4.0,14.0,92,0.00,,,0.00,,2013-02-27 17:42:00,
2013-02-27 12:52:00,38.0,36.0,29.61,ENE,60,3.0,8.0,92,0.00,,,0.00,,2013-02-27 17:52:00,
2013-02-27 13:02:00,39.0,37.0,29.60,East,84,5.0,11.0,91,0.00,,,0.00,,2013-02-27 18:02:00,
2013-02-27 13:11:00,39.0,37.0,29.60,East,84,5.0,11.0,91,0.00,,,0.00,,2013-02-27 18:11:00,
2013-02-27 13:22:00,39.0,37.0,29.60,East,84,5.0,11.0,91,0.00,,,0.00,,2013-02-27 18:22:00,
2013-02-27 13:32:00,38.0,36.0,29.58,NNE,32,3.0,16.0,93,0.00,,,0.00,,2013-02-27 18:32:00,
2013-02-27 13:42:00,38.0,36.0,29.58,NNE,32,3.0,16.0,93,0.00,,,0.00,,2013-02-27 18:42:00,
2013-02-27 13:52:00,38.0,36.0,29.58,NNE,32,3.0,16.0,93,0.00,,,0.00,,2013-02-27 18:52:00,
2013-02-27 14:02:00,38.0,36.0,29.58,NE,37,3.0,7.0,93,0.00,,,0.00,,2013-02-27 19:02:00,
2013-02-27 14:12:00,38.0,36.0,29.58,NE,37,3.0,7.0,93,0.00,,,0.00,,2013-02-27 19:12:00,
2013-02-27 14:22:00,38.0,36.0,29.57,NE,39,2.0,6.0,93,0.00,,,0.00,,2013-02-27 19:22:00,
2013-02-27 14:32:00,39.0,37.0,29.58,WNW,294,3.0,9.0,93,0.00,,,0.00,,2013-02-27 19:32:00,
2013-02-27 14:42:00,39.0,37.0,29.58,WNW,294,3.0,9.0,93,0.00,,,0.00,,2013-02-27 19:42:00,
2013-02-27 14:52:00,38.0,36.0,29.57,NNW,330,3.0,8.0,93,0.00,,,0.00,,2013-02-27 19:52:00,
2013-02-27 15:02:00,38.0,36.0,29.58,WSW,251,0.0,6.0,93,0.00,,,0.00,,2013-02-27 20:02:00,
2013-02-27 15:12:00,38.0,36.0,29.58,WSW,251,0.0,6.0,93,0.00,,,0.00,,2013-02-27 20:12:00,
2013-02-27 15:22:00,38.0,36.0,29.59,West,274,1.0,3.0,94,0.00,,,0.00,,2013-02-27 20:22:00,
2013-02-27 15:32:00,38.0,36.0,29.60,West,272,0.0,2.0,94,0.00,,,0.00,,2013-02-27 20:32:00,
2013-02-27 15:42:00,38.0,36.0,29.60,West,272,0.0,2.0,94,0.00,,,0.00,,2013-02-27 20:42:00,
2013-02-27 15:52:00,38.0,36.0,29.60,WNW,303,1.0,3.0,94,0.00,,,0.00,,2013-02-27 20:52:00,
2013-02-27 16:02:00,38.0,36.0,29.60,ENE,68,1.0,4.0,94,0.00,,,0.00,,2013-02-27 21:02:00,
2013-02-27 16:11:00,38.0,36.0,29.60,ENE,68,1.0,4.0,94,0.00,,,0.00,,2013-02-27 21:11:00,
2013-02-27 16:22:00,37.0,35.0,29.60,West,274,1.0,5.0,93,0.00,,,0.00,,2013-02-27 21:22:00,
2013-02-27 16:32:00,37.0,35.0,29.60,ENE,72,1.0,4.0,94,0.00,,,0.00,,2013-02-27 21:32:00,
2013-02-27 16:42:00,37.0,35.0,29.60,ENE,72,1.0,4.0,94,0.00,,,0.00,,2013-02-27 21:42:00,
2013-02-27 16:52:00,37.0,35.0,29.60,ENE,72,1.0,4.0,94,0.00,,,0.00,,2013-02-27 21:52:00,
2013-02-27 17:02:00,37.0,35.0,29.59,West,264,0.0,2.0,94,0.00,,,0.00,,2013-02-27 22:02:00,
2013-02-27 17:11:00,37.0,35.0,29.59,West,264,0.0,2.0,94,0.00,,,0.00,,2013-02-27 22:11:00,
2013-02-27 17:22:00,36.0,34.0,29.59,NW,325,1.0,4.0,94,0.00,,,0.00,,2013-02-27 22:22:00,
2013-02-27 17:32:00,36.0,35.0,29.59,WNW,298,0.0,3.0,95,0.00,,,0.00,,2013-02-27 22:32:00,
2013-02-27 17:42:00,36.0,35.0,29.59,WNW,298,0.0,3.0,95,0.00,,,0.00,,2013-02-27 22:42:00,
2013-02-27 17:52:00,36.0,35.0,29.59,East,80,1.0,6.0,95,0.00,,,0.00,,2013-02-27 22:52:00,
2013-02-27 18:02:00,36.0,35.0,29.59,WNW,300,0.0,2.0,95,0.00,,,0.00,,2013-02-27 23:02:00,
2013-02-27 18:11:00,36.0,35.0,29.59,WNW,300,0.0,2.0,95,0.00,,,0.00,,2013-02-27 23:11:00,
2013-02-27 18:22:00,36.0,35.0,29.59,NW,319,1.0,3.0,95,0.00,,,0.00,,2013-02-27 23:22:00,
2013-02-27 18:32:00,36.0,35.0,29.58,WNW,296,1.0,4.0,95,0.00,,,0.00,,2013-02-27 23:32:00,
2013-02-27 18:42:00,36.0,35.0,29.58,WNW,296,1.0,4.0,95,0.00,,,0.00,,2013-02-27 23:42:00,
2013-02-27 18:52:00,36.0,35.0,29.58,NE,46,1.0,6.0,95,0.00,,,0.00,,2013-02-27 23:52:00,
2013-02-27 19:02:00,36.0,35.0,29.59,NNE,32,1.0,9.0,95,0.00,,,0.00,,2013-02-28 00:02:00,
2013-02-27 19:12:00,36.0,35.0,29.59,NNE,32,1.0,9.0,95,0.00,,,0.00,,2013-02-28 00:12:00,
2013-02-27 19:22:00,36.0,35.0,29.59,WNW,291,1.0,3.0,95,0.00,,,0.00,,2013-02-28 00:22:00,
2013-02-27 19:32:00,35.0,34.0,29.59,WNW,291,1.0,3.0,95,0.00,,,0.00,,2013-02-28 00:32:00,
2013-02-27 19:42:00,35.0,34.0,29.59,WNW,291,1.0,3.0,95,0.00,,,0.00,,2013-02-28 00:42:00,
2013-02-27 19:52:00,35.0,34.0,29.59,NW,307,0.0,3.0,95,0.00,,,0.00,,2013-02-28 00:52:00,
2013-02-27 20:01:00,35.0,34.0,29.59,NW,318,1.0,3.0,95,0.00,,,0.00,,2013-02-28 01:01:00,
2013-02-27 20:11:00,35.0,34.0,29.59,NW,318,1.0,3.0,95,0.00,,,0.00,,2013-02-28 01:11:00,
2013-02-27 20:22:00,35.0,34.0,29.59,NW,318,1.0,3.0,95,0.00,,,0.00,,2013-02-28 01:22:00,
2013-02-27 20:32:00,35.0,34.0,29.59,WNW,284,0.0,3.0,95,0.00,,,0.00,,2013-02-28 01:32:00,
2013-02-27 20:42:00,35.0,34.0,29.59,WNW,284,0.0,3.0,95,0.00,,,0.00,,2013-02-28 01:42:00,
2013-02-27 20:52:00,35.0,34.0,29.59,WNW,284,0.0,0.0,95,0.00,,,0.00,,2013-02-28 01:52:00,
2013-02-27 21:01:00,35.0,34.0,29.59,WNW,283,0.0,1.0,96,0.00,,,0.00,,2013-02-28 02:01:00,
2013-02-27 21:11:00,35.0,34.0,29.59,WNW,283,0.0,1.0,96,0.00,,,0.00,,2013-02-28 02:11:00,
2013-02-27 21:22:00,35.0,34.0,29.59,WNW,283,0.0,0.0,96,0.00,,,0.00,,2013-02-28 02:22:00,
2013-02-27 21:32:00,35.0,34.0,29.59,WNW,283,0.0,0.0,96,0.00,,,0.00,,2013-02-28 02:32:00,
2013-02-27 21:42:00,35.0,34.0,29.59,WNW,283,0.0,0.0,96,0.00,,,0.00,,2013-02-28 02:42:00,
2013-02-27 21:52:00,35.0,34.0,29.59,WNW,283,0.0,0.0,96,0.00,,,0.00,,2013-02-28 02:52:00,
2013-02-27 22:02:00,35.0,34.0,29.59,SW,227,0.0,2.0,97,0.00,,,0.00,,2013-02-28 03:02:00,
2013-02-27 22:11:00,35.0,34.0,29.59,SW,227,0.0,2.0,97,0.00,,,0.00,,2013-02-28 03:11:00,
2013-02-27 22:21:00,35.0,34.0,29.59,WNW,287,0.0,3.0,97,0.00,,,0.00,,2013-02-28 03:21:00,
2013-02-27 22:32:00,35.0,34.0,29.59,ENE,67,1.0,3.0,97,0.00,,,0.00,,2013-02-28 03:32:00,
2013-02-27 22:42:00,35.0,34.0,29.59,ENE,67,1.0,3.0,97,0.00,,,0.00,,2013-02-28 03:42:00,
2013-02-27 22:52:00,35.0,34.0,29.59,NW,323,0.0,3.0,96,0.00,,,0.00,,2013-02-28 03:52:00,
2013-02-27 23:02:00,35.0,34.0,29.60,ENE,60,1.0,5.0,96,0.00,,,0.00,,2013-02-28 04:02:00,
2013-02-27 23:11:00,35.0,34.0,29.60,ENE,60,1.0,5.0,96,0.00,,,0.00,,2013-02-28 04:11:00,
2013-02-27 23:22:00,35.0,34.0,29.59,NW,312,0.0,2.0,96,0.00,,,0.00,,2013-02-28 04:22:00,
2013-02-27 23:32:00,35.0,34.0,29.59,NW,312,0.0,2.0,96,0.00,,,0.00,,2013-02-28 04:32:00,
2013-02-27 23:42:00,35.0,34.0,29.59,NW,312,0.0,2.0,96,0.00,,,0.00,,2013-02-28 04:42:00,
2013-02-27 23:52:00,35.0,34.0,29.59,WNW,291,0.0,1.0,97,0.00,,,0.00,,2013-02-28 04:52:00,